This demonstration page uses our WeatherBlox Daily Observations layout. Learn more.

Left ArrowRight Arrow

53.62937, 11.41316

Hourly Observations for October 22, 2015

Temp ( °F °C ) Dew Point ( °F °C ) Humidity (%) Winds ( mph kmh ) Pressure ( in mb ) Visibility ( mi km ) Precip ( " mm )
6:20 am 06:20 Cloudy 46 8 45 7 93 93 SSW 9 15 29.88 1012 6 9 N/A
6:50 am 06:50 Cloudy 46 8 45 7 93 93 SSW 10 17 29.88 1012 4 7 N/A
7:20 am 07:20 Cloudy 48 9 45 7 87 87 SSW 10 17 29.85 1011 4 7 N/A
7:50 am 07:50 Cloudy 48 9 45 7 87 87 SW 10 17 29.85 1011 5 8 N/A
8:20 am 08:20 Cloudy 48 9 45 7 87 87 SSW 10 17 29.85 1011 6 9 N/A
8:50 am 08:50 Cloudy 48 9 45 7 87 87 SSW 10 17 29.85 1011 6 9 N/A
9:20 am 09:20 Cloudy 48 9 45 7 87 87 SSW 10 17 29.85 1011 6 9 N/A
9:50 am 09:50 Cloudy 48 9 46 8 94 94 SSW 12 19 29.85 1011 30 48 N/A
10:20 am 10:20 Cloudy 50 10 46 8 88 88 SSW 12 19 29.85 1011 30 48 N/A
10:50 am 10:50 Cloudy 50 10 46 8 88 88 SW 13 20 29.85 1011 30 48 N/A
11:20 am 11:20 Cloudy 50 10 46 8 88 88 SSW 12 19 29.85 1011 30 48 N/A
11:50 am 11:50 Cloudy 52 11 48 9 88 88 SSW 12 19 29.85 1011 30 48 N/A
12:20 pm 12:20 Cloudy 50 10 48 9 94 94 SW 14 22 29.85 1011 30 48 N/A
12:50 pm 12:50 Cloudy 52 11 48 9 88 88 SW 12 19 29.85 1011 5 8 N/A
1:20 pm 13:20 Cloudy 52 11 48 9 88 88 SSW 12 19 29.83 1010 6 9 N/A
1:50 pm 13:50 Cloudy 52 11 48 9 88 88 SSW 13 20 29.83 1010 6 9 N/A
2:20 pm 14:20 Cloudy 52 11 50 10 94 94 SW 13 20 29.83 1010 5 8 N/A
2:50 pm 14:50 Cloudy 52 11 50 10 94 94 SSW 12 19 29.83 1010 6 9 N/A
3:20 pm 15:20 Cloudy 52 11 50 10 94 94 SW 12 19 29.83 1010 4 6 N/A
3:50 pm 15:50 Cloudy 52 11 50 10 94 94 SW 13 20 29.83 1010 5 8 N/A
4:20 pm 16:20 Cloudy 52 11 50 10 94 94 SSW 12 19 29.83 1010 4 6 N/A
4:50 pm 16:50 Cloudy with Drizzle 52 11 52 11 100 100 SW 13 20 29.83 1010 1 2 N/A
5:20 pm 17:20 Cloudy with Mist and Fog 52 11 52 11 100 100 SW 12 19 29.83 1010 2 4 N/A
5:50 pm 17:50 Cloudy with Mist and Fog 52 11 52 11 100 100 SW 13 20 29.83 1010 3 4 N/A
6:20 pm 18:20 Cloudy with Mist and Fog 52 11 52 11 100 100 SW 12 19 29.85 1011 2 4 N/A
6:50 pm 18:50 Cloudy 54 12 52 11 94 94 SW 12 19 29.85 1011 4 7 N/A

Powered by AerisWeather